Find Intelsat IS-14

NORAD ID: 36097 Int'l Des: 2009-064 Owner: INTELD Country: US operational
HEOCIRCULARGSOGEO

Live Position

Loading 3D Globe...

About Intelsat IS-14

Description loading...

Upcoming Passes

Passes for default location (London). Set your location on the main map for personalized predictions.

Altitude History

Loading altitude history...

Two-Line Element Set

1 36097U 09064A 26107.21586602 -.00000267 00000-0 00000-0 0 9996
2 36097 0.0096 189.0883 0002340 191.1153 217.8753 1.00272230 59991
Epoch: Apr 17, 2026 • Age: 10 hours

Current Status

Altitude 35776.1 km
Velocity 3.08 km/s
Sub-Earth Point 0.00°N, 44.99°W
Launch Date Nov 23, 2009
Age 16.3 years
Type communications

Technical Details

Classification Payload
Mass 5663.00 kg
Dry Mass 2517.00 kg
Total Mass 5663.00 kg
Length 7.50 m
Diameter 2.90 m
Span 32.50 m
Shape Box + 2 Pan
Manufacturer LOR
Bus Type SSL-1300
Phase Status In Orbit
Owner/State INTELD/US

Most Searched